Year,Month,Day,Hour,Minute,Value (Times are PST for temperature in C)
2011,04,21,00,00,3.70
2011,04,21,00,01,3.60
2011,04,21,00,02,3.60
2011,04,21,00,03,3.60
2011,04,21,00,04,3.60
2011,04,21,00,05,3.60
2011,04,21,00,06,3.60
2011,04,21,00,07,3.60
2011,04,21,00,08,3.60
2011,04,21,00,09,3.60
2011,04,21,00,10,3.60
2011,04,21,00,11,3.60
2011,04,21,00,12,3.60
2011,04,21,00,13,3.60
2011,04,21,00,14,3.50
2011,04,21,00,15,3.50
2011,04,21,00,16,3.40
2011,04,21,00,17,3.40
2011,04,21,00,18,3.30
2011,04,21,00,19,3.30
2011,04,21,00,20,3.30
2011,04,21,00,21,3.20
2011,04,21,00,22,3.20
2011,04,21,00,23,3.20
2011,04,21,00,24,3.20
2011,04,21,00,25,3.20
2011,04,21,00,26,3.20
2011,04,21,00,27,3.20
2011,04,21,00,28,3.30
2011,04,21,00,29,3.30
2011,04,21,00,30,3.30
2011,04,21,00,31,3.30
2011,04,21,00,32,3.30
2011,04,21,00,33,3.30
2011,04,21,00,34,3.30
2011,04,21,00,35,3.30
2011,04,21,00,36,3.30
2011,04,21,00,37,3.30
2011,04,21,00,38,3.30
2011,04,21,00,39,3.20
2011,04,21,00,40,3.20
2011,04,21,00,41,3.10
2011,04,21,00,42,3.00
2011,04,21,00,43,2.90
2011,04,21,00,44,2.90
2011,04,21,00,45,2.80
2011,04,21,00,46,2.80
2011,04,21,00,47,2.70
2011,04,21,00,48,2.70
2011,04,21,00,49,2.70
2011,04,21,00,50,2.70
2011,04,21,00,51,2.70
2011,04,21,00,52,2.70
2011,04,21,00,53,2.70
2011,04,21,00,54,2.70
2011,04,21,00,55,2.70
2011,04,21,00,56,2.70
2011,04,21,00,57,2.70
2011,04,21,00,58,2.70
2011,04,21,00,59,2.70
2011,04,21,01,00,2.70
2011,04,21,01,01,2.70
2011,04,21,01,02,2.70
2011,04,21,01,03,2.70
2011,04,21,01,04,2.70
2011,04,21,01,05,2.70
2011,04,21,01,06,2.60
2011,04,21,01,07,2.60
2011,04,21,01,08,2.50
2011,04,21,01,09,2.50
2011,04,21,01,10,2.50
2011,04,21,01,11,2.40
2011,04,21,01,12,2.40
2011,04,21,01,13,2.30
2011,04,21,01,14,2.30
2011,04,21,01,15,2.30
2011,04,21,01,16,2.30
2011,04,21,01,17,2.30
2011,04,21,01,18,2.30
2011,04,21,01,19,2.30
2011,04,21,01,20,2.30
2011,04,21,01,21,2.30
2011,04,21,01,22,2.30
2011,04,21,01,23,2.30
2011,04,21,01,24,2.30
2011,04,21,01,25,2.30
2011,04,21,01,26,2.20
2011,04,21,01,27,2.20
2011,04,21,01,28,2.20
2011,04,21,01,29,2.20
2011,04,21,01,30,2.20
2011,04,21,01,31,2.20
2011,04,21,01,32,2.20
2011,04,21,01,33,2.20
2011,04,21,01,34,2.20
2011,04,21,01,35,2.20
2011,04,21,01,36,2.20
2011,04,21,01,37,2.20
2011,04,21,01,38,2.30
2011,04,21,01,39,2.30
2011,04,21,01,40,2.40
2011,04,21,01,41,2.30
2011,04,21,01,42,2.30
2011,04,21,01,43,2.30
2011,04,21,01,44,2.30
2011,04,21,01,45,2.40
2011,04,21,01,46,2.40
2011,04,21,01,47,2.40
2011,04,21,01,48,2.40
2011,04,21,01,49,2.40
2011,04,21,01,50,2.40
2011,04,21,01,51,2.40
2011,04,21,01,52,2.40
2011,04,21,01,53,2.40
2011,04,21,01,54,2.50
2011,04,21,01,55,2.50
2011,04,21,01,56,2.50
2011,04,21,01,57,2.50
2011,04,21,01,58,2.50
2011,04,21,01,59,2.50
2011,04,21,02,00,2.50
2011,04,21,02,01,2.50
2011,04,21,02,02,2.50
2011,04,21,02,03,2.50
2011,04,21,02,04,2.40
2011,04,21,02,05,2.40
2011,04,21,02,06,2.40
2011,04,21,02,07,2.40
2011,04,21,02,08,2.40
2011,04,21,02,09,2.40
2011,04,21,02,10,2.40
2011,04,21,02,11,2.40
2011,04,21,02,12,2.40
2011,04,21,02,13,2.40
2011,04,21,02,14,2.40
2011,04,21,02,15,2.40
2011,04,21,02,16,2.50
2011,04,21,02,17,2.50
2011,04,21,02,18,2.50
2011,04,21,02,19,2.50
2011,04,21,02,20,2.50
2011,04,21,02,21,2.50
2011,04,21,02,22,2.50
2011,04,21,02,23,2.50
2011,04,21,02,24,2.50
2011,04,21,02,25,2.50
2011,04,21,02,26,2.40
2011,04,21,02,27,2.40
2011,04,21,02,28,2.40
2011,04,21,02,29,2.40
2011,04,21,02,30,2.30
2011,04,21,02,31,2.30
2011,04,21,02,32,2.30
2011,04,21,02,33,2.20
2011,04,21,02,34,2.20
2011,04,21,02,35,2.20
2011,04,21,02,36,2.20
2011,04,21,02,37,2.10
2011,04,21,02,38,2.00
2011,04,21,02,39,2.00
2011,04,21,02,40,1.90
2011,04,21,02,41,1.80
2011,04,21,02,42,1.80
2011,04,21,02,43,1.80
2011,04,21,02,44,1.70
2011,04,21,02,45,1.70
2011,04,21,02,46,1.70
2011,04,21,02,47,1.70
2011,04,21,02,48,1.60
2011,04,21,02,49,1.60
2011,04,21,02,50,1.60
2011,04,21,02,51,1.60
2011,04,21,02,52,1.60
2011,04,21,02,53,1.60
2011,04,21,02,54,1.60
2011,04,21,02,55,1.60
2011,04,21,02,56,1.60
2011,04,21,02,57,1.60
2011,04,21,02,58,1.60
2011,04,21,02,59,1.50
2011,04,21,03,00,1.50
2011,04,21,03,01,1.50
2011,04,21,03,02,1.50
2011,04,21,03,03,1.50
2011,04,21,03,04,1.50
2011,04,21,03,05,1.50
2011,04,21,03,06,1.50
2011,04,21,03,07,1.50
2011,04,21,03,08,1.50
2011,04,21,03,09,1.50
2011,04,21,03,10,1.60
2011,04,21,03,11,1.70
2011,04,21,03,12,1.80
2011,04,21,03,13,1.80
2011,04,21,03,14,1.80
2011,04,21,03,15,1.90
2011,04,21,03,16,1.90
2011,04,21,03,17,1.90
2011,04,21,03,18,1.90
2011,04,21,03,19,1.90
2011,04,21,03,20,1.90
2011,04,21,03,21,1.90
2011,04,21,03,22,1.80
2011,04,21,03,23,1.80
2011,04,21,03,24,1.80
2011,04,21,03,25,1.80
2011,04,21,03,26,1.80
2011,04,21,03,27,1.80
2011,04,21,03,28,1.80
2011,04,21,03,29,1.70
2011,04,21,03,30,1.70
2011,04,21,03,31,1.70
2011,04,21,03,32,1.60
2011,04,21,03,33,1.60
2011,04,21,03,34,1.50
2011,04,21,03,35,1.50
2011,04,21,03,36,1.40
2011,04,21,03,37,1.30
2011,04,21,03,38,1.30
2011,04,21,03,39,1.30
2011,04,21,03,40,1.30
2011,04,21,03,41,1.30
2011,04,21,03,42,1.30
2011,04,21,03,43,1.20
2011,04,21,03,44,1.20
2011,04,21,03,45,1.20
2011,04,21,03,46,1.10
2011,04,21,03,47,1.10
2011,04,21,03,48,1.10
2011,04,21,03,49,1.10
2011,04,21,03,50,1.00
2011,04,21,03,51,1.00
2011,04,21,03,52,1.00
2011,04,21,03,53,1.10
2011,04,21,03,54,1.10
2011,04,21,03,55,1.10
2011,04,21,03,56,1.10
2011,04,21,03,57,1.10
2011,04,21,03,58,1.10
2011,04,21,03,59,1.10
2011,04,21,04,00,1.20
2011,04,21,04,01,1.20
2011,04,21,04,02,1.20
2011,04,21,04,03,1.20
2011,04,21,04,04,1.20
2011,04,21,04,05,1.20
2011,04,21,04,06,1.20
2011,04,21,04,07,1.30
2011,04,21,04,08,1.30
2011,04,21,04,09,1.40
2011,04,21,04,10,1.40
2011,04,21,04,11,1.40
2011,04,21,04,12,1.50
2011,04,21,04,13,1.40
2011,04,21,04,14,1.40
2011,04,21,04,15,1.30
2011,04,21,04,16,1.30
2011,04,21,04,17,1.20
2011,04,21,04,18,1.20
2011,04,21,04,19,1.20
2011,04,21,04,20,1.10
2011,04,21,04,21,1.10
2011,04,21,04,22,1.10
2011,04,21,04,23,1.10
2011,04,21,04,24,1.10
2011,04,21,04,25,1.20
2011,04,21,04,26,1.20
2011,04,21,04,27,1.10
2011,04,21,04,28,1.10
2011,04,21,04,29,1.10
2011,04,21,04,30,1.10
2011,04,21,04,31,1.20
2011,04,21,04,32,1.20
2011,04,21,04,33,1.10
2011,04,21,04,34,1.10
2011,04,21,04,35,1.00
2011,04,21,04,36,0.90
2011,04,21,04,37,0.80
2011,04,21,04,38,0.80
2011,04,21,04,39,0.80
2011,04,21,04,40,0.80
2011,04,21,04,41,0.80
2011,04,21,04,42,0.80
2011,04,21,04,43,0.80
2011,04,21,04,44,0.80
2011,04,21,04,45,0.80
2011,04,21,04,46,0.80
2011,04,21,04,47,0.80
2011,04,21,04,48,0.80
2011,04,21,04,49,0.80
2011,04,21,04,50,0.80
2011,04,21,04,51,0.80
2011,04,21,04,52,0.80
2011,04,21,04,53,0.80
2011,04,21,04,54,0.80
2011,04,21,04,55,0.80
2011,04,21,04,56,0.80
2011,04,21,04,57,0.80
2011,04,21,04,58,0.80
2011,04,21,04,59,0.80
2011,04,21,05,00,0.80
2011,04,21,05,01,0.80
2011,04,21,05,02,0.80
2011,04,21,05,03,0.80
2011,04,21,05,04,0.80
2011,04,21,05,05,0.80
2011,04,21,05,06,0.80
2011,04,21,05,07,0.80
2011,04,21,05,08,0.80
2011,04,21,05,09,0.80
2011,04,21,05,10,0.80
2011,04,21,05,11,0.80
2011,04,21,05,12,0.80
2011,04,21,05,13,0.80
2011,04,21,05,14,0.80
2011,04,21,05,15,0.80
2011,04,21,05,16,0.70
2011,04,21,05,17,0.70
2011,04,21,05,18,0.70
2011,04,21,05,19,0.70
2011,04,21,05,20,0.70
2011,04,21,05,21,0.70
2011,04,21,05,22,0.80
2011,04,21,05,23,0.80
2011,04,21,05,24,0.80
2011,04,21,05,25,0.80
2011,04,21,05,26,0.80
2011,04,21,05,27,0.80
2011,04,21,05,28,0.80
2011,04,21,05,29,0.80
2011,04,21,05,30,0.80
2011,04,21,05,31,0.80
2011,04,21,05,32,0.80
2011,04,21,05,33,0.80
2011,04,21,05,34,0.70
2011,04,21,05,35,0.70
2011,04,21,05,36,0.70
2011,04,21,05,37,0.70
2011,04,21,05,38,0.60
2011,04,21,05,39,0.60
2011,04,21,05,40,0.60
2011,04,21,05,41,0.60
2011,04,21,05,42,0.60
2011,04,21,05,43,0.60
2011,04,21,05,44,0.60
2011,04,21,05,45,0.60
2011,04,21,05,46,0.60
2011,04,21,05,47,0.70
2011,04,21,05,48,0.70
2011,04,21,05,49,0.70
2011,04,21,05,50,0.70
2011,04,21,05,51,0.80
2011,04,21,05,52,0.80
2011,04,21,05,53,0.80
2011,04,21,05,54,0.90
2011,04,21,05,55,0.90
2011,04,21,05,56,0.90
2011,04,21,05,57,0.90
2011,04,21,05,58,0.90
2011,04,21,05,59,0.90
2011,04,21,06,00,0.90
2011,04,21,06,01,0.90
2011,04,21,06,02,0.80
2011,04,21,06,03,0.80
2011,04,21,06,04,0.80
2011,04,21,06,05,0.80
2011,04,21,06,06,0.80
2011,04,21,06,07,0.70
2011,04,21,06,08,0.70
2011,04,21,06,09,0.70
2011,04,21,06,10,0.70
2011,04,21,06,11,0.80
2011,04,21,06,12,0.80
2011,04,21,06,13,0.70
2011,04,21,06,14,0.70
2011,04,21,06,15,0.60
2011,04,21,06,16,0.60
2011,04,21,06,17,0.60
2011,04,21,06,18,0.60
2011,04,21,06,19,0.60
2011,04,21,06,20,0.60
2011,04,21,06,21,0.60
2011,04,21,06,22,0.60
2011,04,21,06,23,0.60
2011,04,21,06,24,0.70
2011,04,21,06,25,0.70
2011,04,21,06,26,0.70
2011,04,21,06,27,0.70
2011,04,21,06,28,0.70
2011,04,21,06,29,0.70
2011,04,21,06,30,0.80
2011,04,21,06,31,0.80
2011,04,21,06,32,0.90
2011,04,21,06,33,0.90
2011,04,21,06,34,0.90
2011,04,21,06,35,0.90
2011,04,21,06,36,0.90
2011,04,21,06,37,0.90
2011,04,21,06,38,0.90
2011,04,21,06,39,0.90
2011,04,21,06,40,0.90
2011,04,21,06,41,1.00
2011,04,21,06,42,1.00
2011,04,21,06,43,1.00
2011,04,21,06,44,1.00
2011,04,21,06,45,1.00
2011,04,21,06,46,1.10
2011,04,21,06,47,1.10
2011,04,21,06,48,1.10
2011,04,21,06,49,1.10
2011,04,21,06,50,1.10
2011,04,21,06,51,1.10
2011,04,21,06,52,1.10
2011,04,21,06,53,1.20
2011,04,21,06,54,1.20
2011,04,21,06,55,1.30
2011,04,21,06,56,1.20
2011,04,21,06,57,1.20
2011,04,21,06,58,1.20
2011,04,21,06,59,1.10
2011,04,21,07,00,1.10
2011,04,21,07,01,1.10
2011,04,21,07,02,1.10
2011,04,21,07,03,1.10
2011,04,21,07,04,1.20
2011,04,21,07,05,1.20
2011,04,21,07,06,1.20
2011,04,21,07,07,1.30
2011,04,21,07,08,1.30
2011,04,21,07,09,1.30
2011,04,21,07,10,1.30
2011,04,21,07,11,1.30
2011,04,21,07,12,1.40
2011,04,21,07,13,1.40
2011,04,21,07,14,1.50
2011,04,21,07,15,1.50
2011,04,21,07,16,1.50
2011,04,21,07,17,1.60
2011,04,21,07,18,1.60
2011,04,21,07,19,1.70
2011,04,21,07,20,1.80
2011,04,21,07,21,1.80
2011,04,21,07,22,1.90
2011,04,21,07,23,1.90
2011,04,21,07,24,1.90
2011,04,21,07,25,1.90
2011,04,21,07,26,2.00
2011,04,21,07,27,2.00
2011,04,21,07,28,2.10
2011,04,21,07,29,2.30
2011,04,21,07,30,2.40
2011,04,21,07,31,2.40
2011,04,21,07,32,2.50
2011,04,21,07,33,2.50
2011,04,21,07,34,2.50
2011,04,21,07,35,2.50
2011,04,21,07,36,2.60
2011,04,21,07,37,2.60
2011,04,21,07,38,2.70
2011,04,21,07,39,2.70
2011,04,21,07,40,2.80
2011,04,21,07,41,2.90
2011,04,21,07,42,2.90
2011,04,21,07,43,3.10
2011,04,21,07,44,3.10
2011,04,21,07,45,3.20
2011,04,21,07,46,3.30
2011,04,21,07,47,3.30
2011,04,21,07,48,3.30
2011,04,21,07,49,3.40
2011,04,21,07,50,3.40
2011,04,21,07,51,3.40
2011,04,21,07,52,3.50
2011,04,21,07,53,3.50
2011,04,21,07,54,3.50
2011,04,21,07,55,3.60
2011,04,21,07,56,3.70
2011,04,21,07,57,3.80
2011,04,21,07,58,3.80
2011,04,21,07,59,3.80
2011,04,21,08,00,3.80
2011,04,21,08,01,3.80
2011,04,21,08,02,3.70
2011,04,21,08,03,3.60
2011,04,21,08,04,3.60
2011,04,21,08,05,3.60
2011,04,21,08,06,3.60
2011,04,21,08,07,3.60
2011,04,21,08,08,3.60
2011,04,21,08,09,3.70
2011,04,21,08,10,3.70
2011,04,21,08,11,3.70
2011,04,21,08,12,3.80
2011,04,21,08,13,3.80
2011,04,21,08,14,3.90
2011,04,21,08,15,4.00
2011,04,21,08,16,4.00
2011,04,21,08,17,4.00
2011,04,21,08,18,4.10
2011,04,21,08,19,4.10
2011,04,21,08,20,4.20
2011,04,21,08,21,4.20
2011,04,21,08,22,4.20
2011,04,21,08,23,4.20
2011,04,21,08,24,4.20
2011,04,21,08,25,4.20
2011,04,21,08,26,4.30
2011,04,21,08,27,4.40
2011,04,21,08,28,4.40
2011,04,21,08,29,4.50
2011,04,21,08,30,4.60
2011,04,21,08,31,4.60
2011,04,21,08,32,4.70
2011,04,21,08,33,4.80
2011,04,21,08,34,4.90
2011,04,21,08,35,4.90
2011,04,21,08,36,4.90
2011,04,21,08,37,4.90
2011,04,21,08,38,4.90
2011,04,21,08,39,4.90
2011,04,21,08,40,4.90
2011,04,21,08,41,5.00
2011,04,21,08,42,5.10
2011,04,21,08,43,5.10
2011,04,21,08,44,5.10
2011,04,21,08,45,5.20
2011,04,21,08,46,5.20
2011,04,21,08,47,5.20
2011,04,21,08,48,5.20
2011,04,21,08,49,5.10
2011,04,21,08,50,5.10
2011,04,21,08,51,5.10
2011,04,21,08,52,5.00
2011,04,21,08,53,4.90
2011,04,21,08,54,4.80
2011,04,21,08,55,4.80
2011,04,21,08,56,4.70
2011,04,21,08,57,4.70
2011,04,21,08,58,4.60
2011,04,21,08,59,4.60
2011,04,21,09,00,4.60
2011,04,21,09,01,4.60
2011,04,21,09,02,4.60
2011,04,21,09,03,4.60
2011,04,21,09,04,4.60
2011,04,21,09,05,4.60
2011,04,21,09,06,4.60
2011,04,21,09,07,4.60
2011,04,21,09,08,4.60
2011,04,21,09,09,4.60
2011,04,21,09,10,4.70
2011,04,21,09,11,4.70
2011,04,21,09,12,4.70
2011,04,21,09,13,4.70
2011,04,21,09,14,4.70
2011,04,21,09,15,4.80
2011,04,21,09,16,4.80
2011,04,21,09,17,4.80
2011,04,21,09,18,4.80
2011,04,21,09,19,4.80
2011,04,21,09,20,4.80
2011,04,21,09,21,4.80
2011,04,21,09,22,4.80
2011,04,21,09,23,4.80
2011,04,21,09,24,4.80
2011,04,21,09,25,4.90
2011,04,21,09,26,4.90
2011,04,21,09,27,4.90
2011,04,21,09,28,4.90
2011,04,21,09,29,4.90
2011,04,21,09,30,4.90
2011,04,21,09,31,4.90
2011,04,21,09,32,4.90
2011,04,21,09,33,4.90
2011,04,21,09,34,4.90
2011,04,21,09,35,4.90
2011,04,21,09,36,4.90
2011,04,21,09,37,5.00
2011,04,21,09,38,5.10
2011,04,21,09,39,5.10
2011,04,21,09,40,5.10
2011,04,21,09,41,5.10
2011,04,21,09,42,5.20
2011,04,21,09,43,5.20
2011,04,21,09,44,5.20
2011,04,21,09,45,5.20
2011,04,21,09,46,5.30
2011,04,21,09,47,5.30
2011,04,21,09,48,5.30
2011,04,21,09,49,5.30
2011,04,21,09,50,5.30
2011,04,21,09,51,5.30
2011,04,21,09,52,5.30
2011,04,21,09,53,5.30
2011,04,21,09,54,5.30
2011,04,21,09,55,5.30
2011,04,21,09,56,5.30
2011,04,21,09,57,5.40
2011,04,21,09,58,5.30
2011,04,21,09,59,5.30
2011,04,21,10,00,5.30
2011,04,21,10,01,5.30
2011,04,21,10,02,5.30
2011,04,21,10,03,5.30
2011,04,21,10,04,5.30
2011,04,21,10,05,5.30
2011,04,21,10,06,5.40
2011,04,21,10,07,5.40
2011,04,21,10,08,5.50
2011,04,21,10,09,5.50
2011,04,21,10,10,5.50
2011,04,21,10,11,5.50
2011,04,21,10,12,5.50
2011,04,21,10,13,5.50
2011,04,21,10,14,5.40
2011,04,21,10,15,5.50
2011,04,21,10,16,5.50
2011,04,21,10,17,5.50
2011,04,21,10,18,5.60
2011,04,21,10,19,5.60
2011,04,21,10,20,5.60
2011,04,21,10,21,5.60
2011,04,21,10,22,5.60
2011,04,21,10,23,5.60
2011,04,21,10,24,5.60
2011,04,21,10,25,5.60
2011,04,21,10,26,5.60
2011,04,21,10,27,5.70
2011,04,21,10,28,5.70
2011,04,21,10,29,5.70
2011,04,21,10,30,5.70
2011,04,21,10,31,5.70
2011,04,21,10,32,5.70
2011,04,21,10,33,5.70
2011,04,21,10,34,5.70
2011,04,21,10,35,5.70
2011,04,21,10,36,5.70
2011,04,21,10,37,5.70
2011,04,21,10,38,5.80
2011,04,21,10,39,5.90
2011,04,21,10,40,6.00
2011,04,21,10,41,6.10
2011,04,21,10,42,6.20
2011,04,21,10,43,6.20
2011,04,21,10,44,6.20
2011,04,21,10,45,6.20
2011,04,21,10,46,6.20
2011,04,21,10,47,6.20
2011,04,21,10,48,6.30
2011,04,21,10,49,6.30
2011,04,21,10,50,6.30
2011,04,21,10,51,6.30
2011,04,21,10,52,6.20
2011,04,21,10,53,6.30
2011,04,21,10,54,6.30
2011,04,21,10,55,6.30
2011,04,21,10,56,6.30
2011,04,21,10,57,6.30
2011,04,21,10,58,6.40
2011,04,21,10,59,6.40
2011,04,21,11,00,6.60
2011,04,21,11,01,6.60
2011,04,21,11,02,6.70
2011,04,21,11,03,6.60
2011,04,21,11,04,6.60
2011,04,21,11,05,6.60
2011,04,21,11,06,6.60
2011,04,21,11,07,6.60
2011,04,21,11,08,6.60
2011,04,21,11,09,6.60
2011,04,21,11,10,6.60
2011,04,21,11,11,6.60
2011,04,21,11,12,6.60
2011,04,21,11,13,6.60
2011,04,21,11,14,6.60
2011,04,21,11,15,6.70
2011,04,21,11,16,6.70
2011,04,21,11,17,6.80
2011,04,21,11,18,6.80
2011,04,21,11,19,6.80
2011,04,21,11,20,6.80
2011,04,21,11,21,6.90
2011,04,21,11,22,7.00
2011,04,21,11,23,7.00
2011,04,21,11,24,7.00
2011,04,21,11,25,7.00
2011,04,21,11,26,6.90
2011,04,21,11,27,6.90
2011,04,21,11,28,6.90
2011,04,21,11,29,6.80
2011,04,21,11,30,6.80
2011,04,21,11,31,6.90
2011,04,21,11,32,6.90
2011,04,21,11,33,6.90
2011,04,21,11,34,6.90
2011,04,21,11,35,6.90
2011,04,21,11,36,6.80
2011,04,21,11,37,6.80
2011,04,21,11,38,6.80
2011,04,21,11,39,6.80
2011,04,21,11,40,6.80
2011,04,21,11,41,6.90
2011,04,21,11,42,6.90
2011,04,21,11,43,7.00
2011,04,21,11,44,7.00
2011,04,21,11,45,7.10
2011,04,21,11,46,7.10
2011,04,21,11,47,7.10
2011,04,21,11,48,7.20
2011,04,21,11,49,7.20
2011,04,21,11,50,7.10
2011,04,21,11,51,7.10
2011,04,21,11,52,7.20
2011,04,21,11,53,7.20
2011,04,21,11,54,7.20
2011,04,21,11,55,7.20
2011,04,21,11,56,7.30
2011,04,21,11,57,7.30
2011,04,21,11,58,7.30
2011,04,21,11,59,7.30
2011,04,21,12,00,7.30
2011,04,21,12,01,7.40
2011,04,21,12,02,7.50
2011,04,21,12,03,7.50
2011,04,21,12,04,7.50
2011,04,21,12,05,7.50
2011,04,21,12,06,7.50
2011,04,21,12,07,7.60
2011,04,21,12,08,7.60
2011,04,21,12,09,7.70
2011,04,21,12,10,7.70
2011,04,21,12,11,7.60
2011,04,21,12,12,7.50
2011,04,21,12,13,7.50
2011,04,21,12,14,7.40
2011,04,21,12,15,7.40
2011,04,21,12,16,7.50
2011,04,21,12,17,7.50
2011,04,21,12,18,7.60
2011,04,21,12,19,7.60
2011,04,21,12,20,7.60
2011,04,21,12,21,7.70
2011,04,21,12,22,7.70
2011,04,21,12,23,7.70
2011,04,21,12,24,7.70
2011,04,21,12,25,7.70
2011,04,21,12,26,7.80
2011,04,21,12,27,7.80
2011,04,21,12,28,7.80
2011,04,21,12,29,7.90
2011,04,21,12,30,7.90
2011,04,21,12,31,7.80
2011,04,21,12,32,7.80
2011,04,21,12,33,7.80
2011,04,21,12,34,7.80
2011,04,21,12,35,7.90
2011,04,21,12,36,7.90
2011,04,21,12,37,8.00
2011,04,21,12,38,7.90
2011,04,21,12,39,8.00
2011,04,21,12,40,8.00
2011,04,21,12,41,8.00
2011,04,21,12,42,8.00
2011,04,21,12,43,8.00
2011,04,21,12,44,8.00
2011,04,21,12,45,8.10
2011,04,21,12,46,8.10
2011,04,21,12,47,8.10
2011,04,21,12,48,8.10
2011,04,21,12,49,8.10
2011,04,21,12,50,8.10
2011,04,21,12,51,8.10
2011,04,21,12,52,8.10
2011,04,21,12,53,8.10
2011,04,21,12,54,8.10
2011,04,21,12,55,8.10
2011,04,21,12,56,8.20
2011,04,21,12,57,8.20
2011,04,21,12,58,8.20
2011,04,21,12,59,8.20
2011,04,21,13,00,8.30
2011,04,21,13,01,8.30
2011,04,21,13,02,8.40
2011,04,21,13,03,8.40
2011,04,21,13,04,8.50
2011,04,21,13,05,8.50
2011,04,21,13,06,8.60
2011,04,21,13,07,8.60
2011,04,21,13,08,8.60
2011,04,21,13,09,8.70
2011,04,21,13,10,8.70
2011,04,21,13,11,8.70
2011,04,21,13,12,8.60
2011,04,21,13,13,8.60
2011,04,21,13,14,8.70
2011,04,21,13,15,8.70
2011,04,21,13,16,8.70
2011,04,21,13,17,8.70
2011,04,21,13,18,8.70
2011,04,21,13,19,8.70
2011,04,21,13,20,8.60
2011,04,21,13,21,8.60
2011,04,21,13,22,8.60
2011,04,21,13,23,8.60
2011,04,21,13,24,8.70
2011,04,21,13,25,8.70
2011,04,21,13,26,8.70
2011,04,21,13,27,8.70
2011,04,21,13,28,8.70
2011,04,21,13,29,8.80
2011,04,21,13,30,8.80
2011,04,21,13,31,8.80
2011,04,21,13,32,8.80
2011,04,21,13,33,8.90
2011,04,21,13,34,8.90
2011,04,21,13,35,8.80
2011,04,21,13,36,8.80
2011,04,21,13,37,8.80
2011,04,21,13,38,8.80
2011,04,21,13,39,8.90
2011,04,21,13,40,8.90
2011,04,21,13,41,8.90
2011,04,21,13,42,9.00
2011,04,21,13,43,9.00
2011,04,21,13,44,9.00
2011,04,21,13,45,9.00
2011,04,21,13,46,8.90
2011,04,21,13,47,8.90
2011,04,21,13,48,9.00
2011,04,21,13,49,9.00
2011,04,21,13,50,9.00
2011,04,21,13,51,9.00
2011,04,21,13,52,9.10
2011,04,21,13,53,9.10
2011,04,21,13,54,9.10
2011,04,21,13,55,9.00
2011,04,21,13,56,9.00
2011,04,21,13,57,9.00
2011,04,21,13,58,9.00
2011,04,21,13,59,9.00
2011,04,21,14,00,9.00
2011,04,21,14,01,9.00
2011,04,21,14,02,9.00
2011,04,21,14,03,9.10
2011,04,21,14,04,9.10
2011,04,21,14,05,9.00
2011,04,21,14,06,9.00
2011,04,21,14,07,9.10
2011,04,21,14,08,9.00
2011,04,21,14,09,9.00
2011,04,21,14,10,9.10
2011,04,21,14,11,9.00
2011,04,21,14,12,9.10
2011,04,21,14,13,9.10
2011,04,21,14,14,9.10
2011,04,21,14,15,9.10
2011,04,21,14,16,9.10
2011,04,21,14,17,9.10
2011,04,21,14,18,9.10
2011,04,21,14,19,9.20
2011,04,21,14,20,9.20
2011,04,21,14,21,9.20
2011,04,21,14,22,9.20
2011,04,21,14,23,9.30
2011,04,21,14,24,9.30
2011,04,21,14,25,9.30
2011,04,21,14,26,9.40
2011,04,21,14,27,9.40
2011,04,21,14,28,9.50
2011,04,21,14,29,9.50
2011,04,21,14,30,9.50
2011,04,21,14,31,9.40
2011,04,21,14,32,9.40
2011,04,21,14,33,9.40
2011,04,21,14,34,9.40
2011,04,21,14,35,9.40
2011,04,21,14,36,9.30
2011,04,21,14,37,9.30
2011,04,21,14,38,9.30
2011,04,21,14,39,9.30
2011,04,21,14,40,9.20
2011,04,21,14,41,9.20
2011,04,21,14,42,9.30
2011,04,21,14,43,9.30
2011,04,21,14,44,9.40
2011,04,21,14,45,9.40
2011,04,21,14,46,9.50
2011,04,21,14,47,9.40
2011,04,21,14,48,9.40
2011,04,21,14,49,9.40
2011,04,21,14,50,9.30
2011,04,21,14,51,9.40
2011,04,21,14,52,9.40
2011,04,21,14,53,9.40
2011,04,21,14,54,9.40
2011,04,21,14,55,9.40
2011,04,21,14,56,9.50
2011,04,21,14,57,9.50
2011,04,21,14,58,9.60
2011,04,21,14,59,9.70
2011,04,21,15,00,9.70
2011,04,21,15,01,9.70
2011,04,21,15,02,9.60
2011,04,21,15,03,9.50
2011,04,21,15,04,9.40
2011,04,21,15,05,9.50
2011,04,21,15,06,9.50
2011,04,21,15,07,9.60
2011,04,21,15,08,9.70
2011,04,21,15,09,9.70
2011,04,21,15,10,9.70
2011,04,21,15,11,9.70
2011,04,21,15,12,9.70
2011,04,21,15,13,9.70
2011,04,21,15,14,9.80
2011,04,21,15,15,9.70
2011,04,21,15,16,9.80
2011,04,21,15,17,9.80
2011,04,21,15,18,9.90
2011,04,21,15,19,9.80
2011,04,21,15,20,9.80
2011,04,21,15,21,9.80
2011,04,21,15,22,9.80
2011,04,21,15,23,9.90
2011,04,21,15,24,9.90
2011,04,21,15,25,9.90
2011,04,21,15,26,10.00
2011,04,21,15,27,10.00
2011,04,21,15,28,9.90
2011,04,21,15,29,9.90
2011,04,21,15,30,10.00
2011,04,21,15,31,10.10
2011,04,21,15,32,10.10
2011,04,21,15,33,10.10
2011,04,21,15,34,9.90
2011,04,21,15,35,9.90
2011,04,21,15,36,9.90
2011,04,21,15,37,9.90
2011,04,21,15,38,9.90
2011,04,21,15,39,9.90
2011,04,21,15,40,9.90
2011,04,21,15,41,9.90
2011,04,21,15,42,9.90
2011,04,21,15,43,9.90
2011,04,21,15,44,9.90
2011,04,21,15,45,9.90
2011,04,21,15,46,9.90
2011,04,21,15,47,9.90
2011,04,21,15,48,9.80
2011,04,21,15,49,9.80
2011,04,21,15,50,9.80
2011,04,21,15,51,9.80
2011,04,21,15,52,9.80
2011,04,21,15,53,9.80
2011,04,21,15,54,9.80
2011,04,21,15,55,9.80
2011,04,21,15,56,9.80
2011,04,21,15,57,9.90
2011,04,21,15,58,9.90
2011,04,21,15,59,9.90
2011,04,21,16,00,9.90
2011,04,21,16,01,9.90
2011,04,21,16,02,9.90
2011,04,21,16,03,9.90
2011,04,21,16,04,9.90
2011,04,21,16,05,10.00
2011,04,21,16,06,10.10
2011,04,21,16,07,10.10
2011,04,21,16,08,10.10
2011,04,21,16,09,10.10
2011,04,21,16,10,9.90
2011,04,21,16,11,9.90
2011,04,21,16,12,9.90
2011,04,21,16,13,9.90
2011,04,21,16,14,9.90
2011,04,21,16,15,9.80
2011,04,21,16,16,9.80
2011,04,21,16,17,9.70
2011,04,21,16,18,9.70
2011,04,21,16,19,9.70
2011,04,21,16,20,9.70
2011,04,21,16,21,9.70
2011,04,21,16,22,9.60
2011,04,21,16,23,9.60
2011,04,21,16,24,9.60
2011,04,21,16,25,9.60
2011,04,21,16,26,9.60
2011,04,21,16,27,9.60
2011,04,21,16,28,9.60
2011,04,21,16,29,9.60
2011,04,21,16,30,9.60
2011,04,21,16,31,9.60
2011,04,21,16,32,9.60
2011,04,21,16,33,9.70
2011,04,21,16,34,9.70
2011,04,21,16,35,9.70
2011,04,21,16,36,9.60
2011,04,21,16,37,9.70
2011,04,21,16,38,9.70
2011,04,21,16,39,9.70
2011,04,21,16,40,9.70
2011,04,21,16,41,9.60
2011,04,21,16,42,9.60
2011,04,21,16,43,9.60
2011,04,21,16,44,9.50
2011,04,21,16,45,9.50
2011,04,21,16,46,9.40
2011,04,21,16,47,9.40
2011,04,21,16,48,9.40
2011,04,21,16,49,9.40
2011,04,21,16,50,9.40
2011,04,21,16,51,9.40
2011,04,21,16,52,9.40
2011,04,21,16,53,9.50
2011,04,21,16,54,9.60
2011,04,21,16,55,9.60
2011,04,21,16,56,9.60
2011,04,21,16,57,9.60
2011,04,21,16,58,9.60
2011,04,21,16,59,9.60
2011,04,21,17,00,9.70
2011,04,21,17,01,9.70
2011,04,21,17,02,9.70
2011,04,21,17,03,9.60
2011,04,21,17,04,9.60
2011,04,21,17,05,9.60
2011,04,21,17,06,9.60
2011,04,21,17,07,9.60
2011,04,21,17,08,9.60
2011,04,21,17,09,9.60
2011,04,21,17,10,9.70
2011,04,21,17,11,9.60
2011,04,21,17,12,9.60
2011,04,21,17,13,9.60
2011,04,21,17,14,9.60
2011,04,21,17,15,9.60
2011,04,21,17,16,9.60
2011,04,21,17,17,9.60
2011,04,21,17,18,9.70
2011,04,21,17,19,9.70
2011,04,21,17,20,9.70
2011,04,21,17,21,9.70
2011,04,21,17,22,9.70
2011,04,21,17,23,9.70
2011,04,21,17,24,9.70
2011,04,21,17,25,9.70
2011,04,21,17,26,9.70
2011,04,21,17,27,9.70
2011,04,21,17,28,9.70
2011,04,21,17,29,9.70
2011,04,21,17,30,9.70
2011,04,21,17,31,9.70
2011,04,21,17,32,9.80
2011,04,21,17,33,9.70
2011,04,21,17,34,9.70
2011,04,21,17,35,9.70
2011,04,21,17,36,9.70
2011,04,21,17,37,9.70
2011,04,21,17,38,9.70
2011,04,21,17,39,9.80
2011,04,21,17,40,9.70
2011,04,21,17,41,9.70
2011,04,21,17,42,9.70
2011,04,21,17,43,9.70
2011,04,21,17,44,9.60
2011,04,21,17,45,9.60
2011,04,21,17,46,9.50
2011,04,21,17,47,9.50
2011,04,21,17,48,9.50
2011,04,21,17,49,9.60
2011,04,21,17,50,9.60
2011,04,21,17,51,9.60
2011,04,21,17,52,9.60
2011,04,21,17,53,9.60
2011,04,21,17,54,9.60
2011,04,21,17,55,9.60
2011,04,21,17,56,9.60
2011,04,21,17,57,9.60
2011,04,21,17,58,9.60
2011,04,21,17,59,9.70
2011,04,21,18,00,9.70
2011,04,21,18,01,9.70
2011,04,21,18,02,9.70
2011,04,21,18,03,9.70
2011,04,21,18,04,9.70
2011,04,21,18,05,9.70
2011,04,21,18,06,9.70